FW3057 Weather Reports


Display with metric or nautical units.
time (UTC)temp
F
wind
direction
speed
MPH
gust
MPH
rain 1hr
in
rain 24hr
in
rain mn
in
humidity
%
barometer
mb
20260906203311 74 344 6.0 8.0 0.00 0.00 0.00 77 1017.9
20260906202310 74 213 4.0 8.0 0.00 0.00 0.00 77 1017.5
20260906201310 75 220 4.0 9.0 0.00 0.00 0.00 76 1017.4
20260906200310 75 210 4.0 11.0 0.00 0.00 0.00 76 1017.3
20260906194309 74 225 4.0 9.0 0.00 0.00 0.00 76 1017.1
20260906193310 74 216 6.0 10.0 0.00 0.00 0.00 77 1017.1
20260906191309 74 269 2.0 4.0 0.00 0.00 0.00 76 1016.9
20260906190310 74 220 2.0 4.0 0.00 0.00 0.00 76 1016.7
20260906185309 75 201 2.0 2.0 0.00 0.00 0.00 75 1016.7
20260906184309 75 206 1.0 2.0 0.00 0.00 0.00 75 1016.6
20260906183310 76 178 1.0 2.0 0.00 0.00 0.00 74 1016.6
20260906182309 76 178 1.0 3.0 0.00 0.00 0.00 73 1016.5
20260906181309 76 130 2.0 2.0 0.00 0.00 0.00 72 1016.6
20260906180309 77 145 2.0 3.0 0.00 0.00 0.00 71 1016.7
20260906173309 76 140 2.0 3.0 0.00 0.00 0.00 70 1016.8
20260906172310 76 161 1.0 3.0 0.00 0.00 0.00 69 1016.8
20260906171310 76 143 3.0 4.0 0.00 0.00 0.00 70 1016.8
20260906170310 75 117 1.0 5.0 0.00 0.00 0.00 71 1016.8
20260906165310 75 117 2.0 4.0 0.00 0.00 0.00 72 1017.0
20260906164310 74 178 2.0 4.0 0.00 0.00 0.00 73 1017.0
20260906163310 74 143 3.0 4.0 0.00 0.00 0.00 73 1017.1
20260906161310 73 20 1.0 4.0 0.00 0.00 0.00 75 1017.3
20260906160310 73 127 3.0 4.0 0.00 0.00 0.00 77 1017.2
20260906155310 72 117 4.0 6.0 0.00 0.00 0.00 78 1017.0
20260906154310 73 197 4.0 6.0 0.00 0.00 0.00 77 1017.3
20260906153310 73 60 4.0 6.0 0.00 0.00 0.00 76 1017.4
20260906152310 74 59 2.0 4.0 0.00 0.00 0.00 73 1017.5
20260906151310 74 72 3.0 5.0 0.00 0.00 0.00 73 1017.5
20260906150310 74 60 3.0 5.0 0.00 0.00 0.00 73 1017.5
20260906145310 75 58 3.0 7.0 0.00 0.00 0.00 72 1017.5
20260906143309 75 46 4.0 7.0 0.00 0.00 0.00 70 1017.5
20260906142310 76 37 2.0 5.0 0.00 0.00 0.00 70 1017.6
20260906141309 76 314 3.0 5.0 0.00 0.00 0.00 69 1017.8
20260906140310 77 75 3.0 6.0 0.00 0.00 0.00 69 1018.1
20260906135310 77 30 3.0 5.0 0.00 0.00 0.00 70 1018.4
20260906134310 77 39 2.0 8.0 0.00 0.00 0.00 70 1018.4
20260906133310 77 40 4.0 8.0 0.00 0.00 0.00 70 1018.4
20260906132310 78 46 2.0 6.0 0.00 0.00 0.00 68 1018.5
20260906131309 78 18 2.0 7.0 0.00 0.00 0.00 67 1018.7
20260906130309 79 145 2.0 4.0 0.00 0.00 0.00 66 1018.7
20260906124309 77 225 3.0 6.0 0.00 0.00 0.00 70 1018.7
20260906123309 77 170 1.0 3.0 0.00 0.00 0.00 71 1018.7
20260906122309 76 68 2.0 5.0 0.00 0.00 0.00 71 1018.7
20260906121309 76 295 1.0 5.0 0.00 0.00 0.00 70 1018.9
20260906120309 75 241 3.0 5.0 0.00 0.00 0.00 70 1019.0
20260906114309 74 150 4.0 9.0 0.00 0.00 0.00 73 1018.6
20260906113309 73 210 3.0 11.0 0.00 0.00 0.00 73 1018.6
20260906112310 72 196 3.0 8.0 0.00 0.00 0.00 74 1018.9
20260906111310 72 142 2.0 6.0 0.00 0.00 0.00 74 1018.9
20260906110309 72 202 4.0 10.0 0.00 0.00 0.00 73 1019.0
20260906105309 72 231 3.0 6.0 0.00 0.00 0.00 75 1019.0
20260906103309 71 152 2.0 6.0 0.00 0.00 0.00 76 1019.1
20260906102309 70 178 3.0 6.0 0.00 0.00 0.00 77 1019.4
20260906101309 69 207 3.0 5.0 0.00 0.00 0.00 78 1019.5
20260906100309 69 144 3.0 5.0 0.00 0.00 0.00 78 1019.6
20260906095309 68 167 3.0 7.0 0.00 0.00 0.00 78 1019.8
20260906093309 66 188 3.0 6.0 0.00 0.00 0.00 81 1019.9
20260906092309 65 223 3.0 5.0 0.00 0.00 0.00 81 1019.9
20260906091309 65 159 3.0 6.0 0.00 0.00 0.00 83 1020.0
20260906090309 64 245 1.0 3.0 0.00 0.00 0.00 82 1020.3
20260906085309 64 324 2.0 3.0 0.00 0.00 0.00 81 1020.1
20260906084309 64 178 3.0 6.0 0.00 0.00 0.00 79 1020.0
20260906083309 64 232 4.0 8.0 0.00 0.00 0.00 77 1020.3
20260906082309 64 227 3.0 7.0 0.00 0.00 0.00 76 1020.3
20260906081309 64 208 3.0 7.0 0.00 0.00 0.00 75 1019.9
20260906080309 64 217 3.0 5.0 0.00 0.00 0.00 74 1020.0
20260906075310 64 100 3.0 8.0 0.00 0.00 0.00 74 1020.1
20260906074310 64 183 5.0 9.0 0.00 0.00 0.00 75 1020.3
20260906073309 64 185 3.0 6.0 0.00 0.00 0.00 76 1020.2
20260906072309 63 223 2.0 8.0 0.00 0.00 0.00 77 1020.4
20260906071309 63 181 5.0 8.0 0.00 0.00 0.00 78 1020.4
20260906070309 62 204 4.0 9.0 0.00 0.00 0.00 80 1020.5
20260906065309 61 218 5.0 8.0 0.00 0.00 0.00 82 1020.6
20260906064309 61 196 4.0 7.0 0.00 0.00 0.00 83 1020.5
20260906063309 60 167 3.0 6.0 0.00 0.00 0.00 83 1020.6
20260906061308 60 178 5.0 8.0 0.00 0.00 0.00 84 1020.9
20260906060308 60 212 4.0 9.0 0.00 0.00 0.00 85 1020.9
20260906055308 59 229 4.0 9.0 0.00 0.00 0.00 86 1021.0
20260906054308 59 137 5.0 9.0 0.00 0.00 0.00 87 1020.9
20260906053308 59 214 3.0 7.0 0.00 0.00 0.00 87 1021.0
20260906051308 59 240 3.0 6.0 0.00 0.00 0.00 88 1021.0
20260906050308 59 110 3.0 5.0 0.00 0.00 0.00 88 1020.7
20260906043312 59 161 1.0 3.0 0.00 0.00 0.00 88 1021.1
20260906042311 59 89 2.0 5.0 0.00 0.00 0.00 88 1021.0
20260906041311 59 95 3.0 5.0 0.00 0.00 0.00 89 1021.4
20260906040311 59 113 4.0 7.0 0.00 0.00 0.00 89 1021.6
20260906035311 59 161 1.0 2.0 0.00 0.00 0.00 89 1021.9
20260906034311 59 190 1.0 4.0 0.00 0.00 0.00 89 1022.1
20260906032311 59 145 1.0 4.0 0.00 0.00 0.00 89 1021.9
20260906031311 59 140 1.0 3.0 0.00 0.00 0.00 88 1022.2
20260906030311 59 178 1.0 3.0 0.00 0.00 0.00 88 1022.2
20260906024311 59 56 1.0 3.0 0.00 0.00 0.00 89 1022.2
20260906023311 60 145 2.0 3.0 0.00 0.00 0.00 89 1022.7
20260906022311 60 138 2.0 3.0 0.00 0.00 0.00 89 1022.8
20260906021311 60 169 2.0 4.0 0.00 0.00 0.00 89 1023.1
20260906015311 60 145 1.0 3.0 0.00 0.00 0.00 89 1023.1
20260906014311 60 156 2.0 3.0 0.00 0.00 0.00 89 1023.2
20260906013311 60 193 3.0 5.0 0.00 0.00 0.00 90 1023.1
20260906012311 60 175 4.0 6.0 0.00 0.00 0.00 90 1023.2
20260906011311 60 170 2.0 3.0 0.00 0.00 0.00 90 1023.3
20260906010311 60 145 3.0 4.0 0.00 0.00 0.00 89 1023.4
20260906005311 60 190 2.0 3.0 0.00 0.00 0.00 89 1023.3
20260906002311 61 124 1.0 2.0 0.00 0.00 0.00 89 1023.8
20260906001311 61 152 1.0 2.0 0.00 0.00 0.00 89 1023.9
20260906000311 61 165 1.0 2.0 0.00 0.00 0.00 88 1024.0
20260905235311 61 127 2.0 4.0 0.00 0.00 0.00 88 1024.2
20260905234311 61 117 2.0 3.0 0.00 0.00 0.00 88 1024.2
20260905233311 61 163 2.0 4.0 0.00 0.00 0.00 87 1024.2
20260905232311 62 152 2.0 4.0 0.00 0.00 0.00 87 1024.3
20260905231311 62 115 2.0 4.0 0.00 0.00 0.00 86 1024.2
20260905225310 62 105 2.0 4.0 0.00 0.00 0.00 85 1024.4
20260905224311 62 105 3.0 4.0 0.00 0.00 0.00 85 1024.6
20260905223311 63 89 1.0 3.0 0.00 0.00 0.00 85 1024.6
20260905222310 63 148 2.0 3.0 0.00 0.00 0.00 85 1024.7
20260905221310 63 127 1.0 4.0 0.00 0.00 0.00 84 1024.8
20260905220311 63 112 5.0 9.0 0.00 0.00 0.00 84 1024.6
20260905215310 63 96 2.0 5.0 0.00 0.00 0.00 84 1024.7
20260905213311 63 156 2.0 6.0 0.00 0.00 0.00 83 1025.1
20260905212310 63 117 4.0 7.0 0.00 0.00 0.00 83 1025.1
20260905211310 63 102 3.0 8.0 0.00 0.00 0.00 83 1025.1
20260905210310 63 107 4.0 8.0 0.00 0.00 0.00 83 1025.2
20260905205310 63 113 4.0 7.0 0.00 0.00 0.00 83 1025.1